[[{"header":{"parameterUnit":"m.s-1","parameterCategory":1,"la1":30.2992,"la2":30.254,"lo1":-89.0895,"lo2":-89.0443,"dy":0.0025,"dx":0.0025,"nx":19,"ny":19,"refTime":"2026-05-05T03:00:00:Z","depth":0,"parameterNumber":2,"parameterNumberName":"U-component_of_WINDS"},"data":[0,0,0,-1.8063,-1.8064,-1.8111,-1.8112,-1.8172,-1.8173,0,0,0,0,0,0,0,0,0,0,0,-1.8048,-1.8048,-1.8063,-1.8064,-1.8111,-1.8112,-1.8172,-1.8173,0,0,0,0,0,0,0,0,0,0,0,-1.8048,-1.8048,-1.8049,-1.8065,-1.8111,-1.8112,-1.8172,-1.8137,0,0,0,0,0,0,0,0,0,0,-1.8091,-1.8075,-1.8048,-1.8049,-1.8065,-1.8111,-1.8112,-1.8135,-1.8139,-1.815,0,-1.8159,0,-1.8167,-1.8177,-1.8177,0,0,0,-1.8066,-1.8071,-1.8086,-1.8049,-1.8065,-1.8111,-1.8091,-1.8137,-1.8142,-1.8156,-1.816,-1.8162,-1.8168,-1.8177,-1.8177,-1.8236,-1.8236,0,0,-1.8063,-1.8056,-1.8082,-1.8088,-1.8079,-1.8089,-1.8092,-1.814,-1.8144,-1.816,-1.8163,-1.8169,-1.8177,-1.8178,-1.8235,-1.8236,0,0,0,-1.8055,-1.8054,-1.8067,-1.8086,-1.8094,-1.8091,-1.8094,-1.8142,-1.8147,-1.8164,-1.8169,-1.8178,-1.8178,-1.8235,-1.8235,-1.8237,0,0,0,-1.8053,-1.8049,-1.8066,-1.8061,-1.8093,-1.8118,-1.8095,-1.8144,-1.8149,-1.8169,-1.8178,-1.8179,-1.8235,-1.8235,-1.8237,-1.8239,0,0,0,-1.8045,-1.8048,-1.8054,-1.8061,-1.8081,-1.8118,-1.8125,-1.8145,-1.8153,-1.8177,-1.8179,-1.8235,-1.8235,-1.8236,-1.8238,-1.8252,0,0,0,-1.8035,-1.8055,-1.8054,-1.8079,-1.808,-1.8118,-1.8125,-1.8154,-1.8175,-1.8178,-1.8235,-1.8235,-1.8236,-1.8238,-1.8251,-1.8261,-1.8265,0,0,-1.8056,-1.8057,-1.8073,-1.8073,-1.8109,-1.8112,-1.8149,-1.8176,-1.8186,-1.8219,-1.8221,-1.8237,-1.8238,-1.8252,-1.8289,-1.8291,0,0,0,-1.8077,-1.8088,-1.8099,-1.8118,-1.8139,-1.8158,-1.818,-1.8191,-1.8219,-1.8201,-1.8246,-1.8247,-1.8255,-1.8261,-1.8263,-1.8271,-1.8238,-1.8238,-1.8238,-1.8095,-1.8107,-1.8134,-1.8151,-1.817,-1.8194,-1.821,-1.8229,-1.8235,-1.8246,-1.8255,-1.8276,-1.8282,-1.8284,-1.8292,-1.8262,-1.8262,-1.8262,-1.8262,-1.8127,-1.8145,-1.8153,-1.8182,-1.8195,-1.822,-1.8244,-1.8248,-1.8275,-1.827,-1.8278,-1.827,-1.8286,-1.8294,-1.8263,-1.8263,-1.8263,-1.8262,-1.8262,-1.814,-1.815,-1.8162,-1.8192,-1.8215,-1.8233,-1.8257,-1.8269,-1.828,-1.8288,-1.8299,-1.8299,-1.8301,-1.8293,-1.8293,-1.8293,-1.8293,-1.8293,-1.8293,-1.8148,-1.8161,-1.818,-1.8205,-1.8219,-1.824,-1.8266,-1.8281,-1.8301,-1.8307,-1.8308,-1.8313,-1.8286,-1.8278,-1.8294,-1.8294,-1.8294,-1.8294,-1.8294,-1.8174,-1.817,-1.8198,-1.8213,-1.8244,-1.8266,-1.8281,-1.8312,-1.8326,-1.8338,-1.8343,-1.8321,-1.8323,-1.8322,-1.8315,-1.834,-1.834,-1.834,-1.834,-1.8184,-1.8187,-1.8219,-1.8241,-1.8265,-1.8282,-1.8316,-1.8337,-1.8358,-1.8368,-1.8367,-1.836,-1.8358,-1.8361,-1.8359,-1.8353,-1.8387,-1.8387,-1.8387,-1.8201,-1.8207,-1.8232,-1.8251,-1.8277,-1.8299,-1.8332,-1.8359,-1.8383,-1.8389,-1.8377,-1.8375,-1.8364,-1.836,-1.8364,-1.8359,-1.8349,0,0]},{"header":{"parameterUnit":"m.s-1","parameterCategory":1,"la1":30.2992,"la2":30.254,"lo1":-89.0895,"lo2":-89.0443,"dy":0.0025,"dx":0.0025,"nx":19,"ny":19,"refTime":"2026-05-05T03:00:00:Z","depth":0,"parameterNumber":3,"parameterNumberName":"V-component_of_WINDS"},"data":[0,0,0,6.2225,6.2224,6.2178,6.2178,6.2124,6.2123,0,0,0,0,0,0,0,0,0,0,0,6.2245,6.2245,6.2225,6.2224,6.2178,6.2178,6.2124,6.2123,0,0,0,0,0,0,0,0,0,0,0,6.2245,6.2245,6.2244,6.2224,6.2178,6.2178,6.2124,6.2156,0,0,0,0,0,0,0,0,0,0,6.22,6.2224,6.2245,6.2244,6.2224,6.2178,6.2178,6.2158,6.2154,6.2148,0,6.2146,0,6.2134,6.212,6.212,0,0,0,6.2219,6.2227,6.221,6.2244,6.2224,6.2179,6.2198,6.2156,6.2152,6.2143,6.2145,6.2143,6.2133,6.212,6.212,6.2108,6.2108,0,0,6.2221,6.2239,6.2213,6.2208,6.2219,6.2199,6.2196,6.2153,6.2155,6.2145,6.2142,6.2133,6.212,6.2119,6.2108,6.2108,0,0,0,6.2232,6.2241,6.2224,6.221,6.2202,6.2198,6.2195,6.2157,6.2151,6.2141,6.2132,6.212,6.2119,6.2108,6.2108,6.2136,0,0,0,6.2234,6.2247,6.2226,6.2236,6.2203,6.218,6.22,6.2154,6.2148,6.2132,6.212,6.2119,6.2107,6.2108,6.2135,6.2145,0,0,0,6.2246,6.2248,6.2244,6.2237,6.2218,6.218,6.2171,6.2152,6.2143,6.212,6.2118,6.2107,6.2108,6.2134,6.2144,6.2148,0,0,0,6.2262,6.2267,6.2245,6.2247,6.2219,6.2199,6.2171,6.2154,6.2138,6.2119,6.2107,6.2108,6.2133,6.2142,6.2147,6.2155,6.216,0,0,6.2278,6.227,6.227,6.2248,6.2238,6.2205,6.2196,6.2163,6.2143,6.212,6.212,6.2135,6.2143,6.2148,6.2184,6.2188,0,0,0,6.2281,6.2281,6.2274,6.2262,6.2239,6.222,6.2187,6.2175,6.2155,6.2136,6.2137,6.2142,6.2143,6.2146,6.215,6.215,6.211,6.211,6.211,6.2327,6.2304,6.2303,6.2275,6.2263,6.223,6.2217,6.2195,6.2173,6.2174,6.2166,6.2191,6.2196,6.2198,6.2199,6.2169,6.2169,6.2169,6.2169,6.2348,6.2344,6.2319,6.2308,6.2283,6.2273,6.2241,6.2227,6.2211,6.2195,6.2195,6.2178,6.2204,6.2203,6.2171,6.2171,6.2171,6.217,6.217,6.2375,6.237,6.2357,6.2338,6.2325,6.2295,6.2283,6.226,6.2238,6.2239,6.2228,6.2228,6.2224,6.2236,6.2236,6.2236,6.2236,6.2236,6.2236,6.2408,6.2394,6.2388,6.2366,6.2356,6.2339,6.2307,6.2294,6.2275,6.2259,6.2258,6.2237,6.2211,6.2205,6.2237,6.2237,6.2237,6.2237,6.2237,6.2438,6.2428,6.242,6.241,6.2382,6.237,6.2342,6.232,6.2306,6.2301,6.2279,6.2265,6.2253,6.225,6.2245,6.2285,6.2285,6.2285,6.2285,6.2461,6.2454,6.2441,6.2426,6.2409,6.2383,6.2372,6.2347,6.2319,6.2309,6.23,6.2291,6.2289,6.2279,6.2275,6.227,6.2315,6.2315,6.2315,6.2477,6.2468,6.2465,6.2441,6.2418,6.2398,6.2387,6.2369,6.2334,6.2316,6.23,6.2299,6.2285,6.2282,6.2262,6.2257,6.2247,0,0]}]]